Notices

What's New in latest Release from April 7th, 2021:

- Updated Glossary, including Speed of Maximum Gust, and Total Hourly Precipitation

- Updated national and regional climate services offices contacts and prices information

- Addition of station inventory lists for 1981-2010, 1971-2000, and 1961-1990 Normals.

If you haven't already, please take our survey and provide feedback about our website: https://eccc.sondage-survey.ca/f/LanguageSelection.aspx?s=442ca660-fcf1-47c0-95a9-59707d6fd709

Hourly Data Report for June 28, 2020

TRENTON A
ONTARIO
Current Station Operator: DND

44°07'00.000" N
77°32'00.000" W
86.30 m
6158875
71621
YTR

Download Data

Hourly Data (June 2020)
Hourly Data Report for June 28, 2020
TIME
LST
Temp Definition
°C
Dew Point Definition
°C
Rel Hum Definition
%
Precip. Amount Definition
mm

Wind Dir Definition
10's deg

Wind Spd Definition
km/h
Visibility Definition
km
Stn Press Definition
kPa
Hmdx Definition


Wind Chill Definition


Weather Definition


00:00 20.9 19.0 89     0 24.1 99.48 28   Mostly Cloudy
01:00 21.5 18.9 85     0 24.1 99.44 28   Mostly Cloudy
02:00 19.1 18.3 95   2 8 12.9 99.39     Mainly Clear
03:00 19.4 18.3 93     0 16.1 99.43     Mainly Clear
04:00 18.4 17.9 97   34 5 16.1 99.48     Mainly Clear
05:00 18.7 17.7 94   31 4 24.1 99.52     Mainly Clear
06:00 19.2 16.9 87   29 4 24.1 99.59     Mostly Cloudy
07:00 20.0 16.9 82   30 8 24.1 99.62 25   Mostly Cloudy
08:00 21.7 17.4 77   34 9 24.1 99.65 27   Mostly Cloudy
09:00 23.4 18.2 73   34 9 24.1 99.65 30   Mainly Clear
10:00 24.2 18.8 72   18 11 24.1 99.65 31   Mainly Clear
11:00 22.9 17.9 73   20 15 24.1 99.68 29   Mostly Cloudy
12:00 23.2 18.0 73   21 15 24.1 99.68 29   Mostly Cloudy
13:00 24.8 19.0 70   23 11 24.1 99.67 32   Mainly Clear
14:00 22.8 17.7 73   21 21 24.1 99.65 29   Mainly Clear
15:00 26.0 18.5 63   19 11 24.1 99.65 32   Mostly Cloudy
16:00 25.4 18.0 64   25 4 24.1 99.68 31   Mostly Cloudy
17:00 28.2 16.7 50   36 17 24.1 99.68 33   Mainly Clear
18:00 27.4 15.2 47   1 17 24.1 99.72 31   Mainly Clear
19:00 26.0 16.6 56   3 8 24.1 99.76 31   Mainly Clear
20:00 23.6 17.6 69     0 24.1 99.81 29   Mainly Clear
21:00 21.1 17.2 78     0 24.1 99.87 27   Mainly Clear
22:00 19.7 17.3 86     0 24.1 99.90     Mainly Clear
23:00 19.8 17.3 86     0 24.1 99.93     Mainly Clear

Notes on Data Quality.

Legend

  • E = Estimated
  • M = Missing
  • NA = Not Available*
  • [empty] = Indicates an unobserved value
Date modified: